KI5QWQ Weather Reports


time (UTC)temp
F
wind
direction
speed
knots
gust
knots
rain 1hr
in
rain 24hr
in
rain mn
in
humidity
%
barometer
mb
20260508115418 0 160 0.0 1.7 0.00 0.00 0.00 1017.9
20260508114913 0 120 0.9 1.7 0.00 0.00 0.00 1018.1
20260508114410 0 113 0.0 0.9 0.00 0.00 0.00 1018.2
20260508113907 0 104 0.0 1.7 0.00 0.00 0.00 1018.1
20260508113405 0 119 0.0 1.7 0.00 0.00 0.00 1018.2
20260508112902 0 109 0.0 1.7 0.00 0.00 0.00 1018.1
20260508112359 0 131 0.9 1.7 0.00 0.00 0.00 1018.0
20260508111855 0 121 0.0 2.6 0.00 0.00 0.00 1018.1
20260508111352 0 111 0.0 2.6 0.00 0.00 0.00 1017.9
20260508110849 0 211 0.0 1.7 0.00 0.00 0.00 1017.9
20260508110347 0 60 1.7 2.6 0.00 0.00 0.00 1017.8
20260508105847 0 42 0.0 3.5 0.00 0.00 0.00 1017.6
20260508105343 0 58 0.0 2.6 0.00 0.00 0.00 1017.4
20260508104841 0 146 0.0 1.7 0.00 0.00 0.00 1017.4
20260508104337 0 354 1.7 2.6 0.00 0.00 0.00 1017.5
20260508103835 0 127 0.0 2.6 0.00 0.00 0.00 1017.8
20260508103332 0 298 0.0 2.6 0.00 0.00 0.00 1018.0
20260508102829 0 89 0.0 1.7 0.00 0.00 0.00 1018.0
20260508102327 0 136 0.0 1.7 0.00 0.00 0.00 1018.1
20260508101824 0 84 0.0 1.7 0.00 0.00 0.00 1018.1
20260508101322 0 355 1.7 3.5 0.00 0.00 0.00 1018.4
20260508100819 0 105 2.6 2.6 0.00 0.00 0.00 1018.5
20260508100318 0 276 1.7 2.6 0.00 0.00 0.00 1018.5
20260508095812 0 165 0.9 3.5 0.00 0.00 0.00 1018.4
20260508095311 0 116 0.0 0.0 0.00 0.00 0.00 1018.2
20260508094807 0 142 0.0 1.7 0.00 0.00 0.00 1018.2
20260508094304 0 353 0.0 2.6 0.00 0.00 0.00 1018.5
20260508093801 0 138 0.0 1.7 0.00 0.00 0.00 1018.5
20260508093259 0 76 0.9 1.7 0.00 0.00 0.00 1018.5
20260508092755 0 107 0.0 0.9 0.00 0.00 0.00 1018.5
20260508092254 0 104 0.0 0.9 0.00 0.00 0.00 1018.4
20260508091752 0 210 0.0 0.9 0.00 0.00 0.00 1018.1
20260508091248 0 57 0.0 1.7 0.00 0.00 0.00 1018.1
20260508090746 0 26 1.7 1.7 0.00 0.00 0.00 1018.0
20260508090244 0 226 0.0 0.9 0.00 0.00 0.00 1018.1
20260508085739 0 62 0.0 1.7 0.00 0.00 0.00 1017.8
20260508085237 0 125 0.0 0.9 0.00 0.00 0.00 1017.8
20260508084732 0 152 0.9 1.7 0.00 0.00 0.00 1017.5
20260508084230 0 104 0.0 0.0 0.00 0.00 0.00 1017.5
20260508083728 0 147 0.0 0.0 0.00 0.00 0.00 1018.0
20260508083225 0 89 0.0 0.9 0.00 0.00 0.00 1017.9
20260508082720 0 123 0.9 1.7 0.00 0.00 0.00 1018.0
20260508082218 0 177 0.9 0.9 0.00 0.00 0.00 1017.6
20260508081715 0 185 0.0 0.9 0.00 0.00 0.00 1017.9
20260508081211 0 114 1.7 2.6 0.00 0.00 0.00 1017.8
20260508080708 0 138 0.9 1.7 0.00 0.00 0.00 1017.5
20260508080207 0 50 0.0 0.9 0.00 0.00 0.00 1017.5
20260508075703 0 37 0.0 0.9 0.00 0.00 0.00 1017.4
20260508075200 0 160 0.0 1.7 0.00 0.00 0.00 1017.3
20260508074657 0 131 0.0 1.7 0.00 0.00 0.00 1017.2
20260508074154 0 135 0.0 1.7 0.00 0.00 0.00 1017.4
20260508073651 0 75 0.0 0.9 0.00 0.00 0.00 1017.3
20260508073149 0 99 0.9 1.7 0.00 0.00 0.00 1017.8
20260508072644 0 133 0.0 1.7 0.00 0.00 0.00 1017.9
20260508072142 0 73 0.9 1.7 0.00 0.00 0.00 1018.0
20260508071640 0 96 0.9 0.9 0.00 0.00 0.00 1018.1
20260508071138 0 131 0.9 1.7 0.00 0.00 0.00 1017.9
20260508070635 0 103 0.0 1.7 0.00 0.00 0.00 1018.1
20260508070133 0 122 0.0 1.7 0.00 0.00 0.00 1018.2
20260508065630 0 123 0.0 0.9 0.00 0.00 0.00 1018.3
20260508065128 0 117 0.0 0.9 0.00 0.00 0.00 1018.3
20260508064626 0 154 0.0 0.9 0.00 0.00 0.00 1018.3
20260508064124 0 104 0.0 1.7 0.00 0.00 0.00 1018.6
20260508063621 0 129 0.0 0.9 0.00 0.00 0.00 1018.6
20260508063119 0 89 0.0 1.7 0.00 0.00 0.00 1018.7
20260508062616 0 139 0.0 1.7 0.00 0.00 0.00 1018.6
20260508062112 0 117 0.0 1.7 0.00 0.00 0.00 1018.6
20260508061610 0 131 0.9 1.7 0.00 0.00 0.00 1018.7
20260508061108 0 155 0.0 0.9 0.00 0.00 0.00 1018.9
20260508060603 0 230 0.0 1.7 0.00 0.00 0.00 1018.7
20260508055556 0 62 0.0 0.9 0.00 0.00 0.00 1018.5
20260508055054 0 106 0.0 1.7 0.00 0.00 0.00 1018.2
20260508054550 0 146 0.9 0.9 0.00 0.00 0.00 1018.3
20260508054047 0 122 0.9 0.9 0.00 0.00 0.00 1018.4
20260508053544 0 135 0.0 0.9 0.00 0.00 0.00 1018.6
20260508053042 0 117 0.0 0.0 0.00 0.00 0.00 1018.5
20260508052539 0 110 0.0 0.9 0.00 0.00 0.00 1018.5
20260508052036 0 240 0.0 0.9 0.00 0.00 0.00 1018.7
20260508051532 0 113 0.0 0.9 0.00 0.00 0.00 1018.4
20260508051027 0 111 0.9 1.7 0.00 0.00 0.00 1018.5
20260508050524 0 119 0.0 0.9 0.00 0.00 0.00 1018.8
20260508050021 0 75 0.0 1.7 0.00 0.00 0.00 1018.6
20260508045518 0 124 0.9 1.7 0.00 0.00 0.00 1018.6
20260508045015 0 136 0.9 0.9 0.00 0.00 0.00 1018.8
20260508044513 0 164 0.0 0.9 0.00 0.00 0.00 1019.3
20260508044008 0 174 0.0 0.9 0.00 0.00 0.00 1019.1
20260508043505 0 118 0.0 1.7 0.00 0.00 0.00 1018.8
20260508043002 0 172 0.0 1.7 0.00 0.00 0.00 1018.9
20260508042459 0 68 0.0 0.9 0.00 0.00 0.00 1018.7
20260508041956 0 88 0.9 1.7 0.00 0.00 0.00 1018.5
20260508041452 0 142 1.7 1.7 0.00 0.00 0.00 1018.7
20260508040949 0 129 0.0 1.7 0.00 0.00 0.00 1019.3
20260508040447 0 55 0.0 0.9 0.00 0.00 0.00 1019.0
20260508035944 0 75 0.0 0.9 0.00 0.00 0.00 1019.0
20260508035441 0 108 0.9 2.6 0.00 0.00 0.00 1019.0
20260508034938 0 134 0.0 1.7 0.00 0.00 0.00 1019.4
20260508034435 0 129 0.0 0.9 0.00 0.00 0.00 1019.4
20260508033931 0 118 0.0 1.7 0.00 0.00 0.00 1019.4
20260508033430 0 322 0.0 0.9 0.00 0.00 0.00 1019.5
20260508032927 0 202 0.0 1.7 0.00 0.00 0.00 1019.2
20260508032424 0 179 0.9 2.6 0.00 0.00 0.00 1019.2
20260508031921 0 128 0.9 1.7 0.00 0.00 0.00 1019.4
20260508031418 0 141 0.9 1.7 0.00 0.00 0.00 1019.5
20260508030914 0 242 0.0 0.0 0.00 0.00 0.00 1019.4
20260508030411 0 117 0.0 0.0 0.00 0.00 0.00 1018.7
20260508025908 0 84 0.9 0.9 0.00 0.00 0.00 1018.5
20260508025405 0 135 0.9 2.6 0.00 0.00 0.00 1018.1
20260508024902 0 124 0.0 1.7 0.00 0.00 0.00 1018.3
20260508024358 0 117 0.0 0.9 0.00 0.00 0.00 1018.4
20260508023855 0 189 0.0 1.7 0.00 0.00 0.00 1018.2
20260508023352 0 174 0.9 0.9 0.00 0.00 0.00 1017.8
20260508022849 0 228 0.0 1.7 0.00 0.00 0.00 1017.5
20260508022344 0 109 0.0 0.9 0.00 0.00 0.00 1017.5
20260508021841 0 53 0.0 0.9 0.00 0.00 0.00 1017.3
20260508021338 0 165 1.7 1.7 0.00 0.00 0.00 1017.4
20260508020833 0 142 0.9 1.7 0.00 0.00 0.00 1017.2
20260508020332 0 110 0.0 1.7 0.00 0.00 0.00 1017.3
20260508015829 0 104 0.0 0.9 0.00 0.00 0.00 1017.5
20260508015326 0 147 1.7 1.7 0.00 0.00 0.00 1017.1
20260508014822 0 177 0.9 1.7 0.00 0.00 0.00 1017.3
20260508014320 0 179 0.0 1.7 0.00 0.00 0.00 1017.5
20260508013815 0 51 0.0 1.7 0.00 0.00 0.00 1017.6
20260508013312 0 180 0.9 0.9 0.00 0.00 0.00 1017.6
20260508012809 0 52 0.0 0.9 0.00 0.00 0.00 1017.3
20260508012307 0 154 0.0 1.7 0.00 0.00 0.00 1017.3
20260508011804 0 135 0.0 1.7 0.00 0.00 0.00 1017.3
20260508011301 0 130 0.9 1.7 0.00 0.00 0.00 1017.1
20260508010758 0 142 0.9 0.9 0.00 0.00 0.00 1017.2
20260508010256 0 126 0.9 1.7 0.00 0.00 0.00 1017.9
20260508005753 0 257 0.0 0.9 0.00 0.00 0.00 1017.9
20260508005249 0 147 1.7 2.6 0.00 0.00 0.00 1017.9
20260508004745 0 142 0.0 0.9 0.00 0.00 0.00 1018.4
20260508004242 0 81 0.9 1.7 0.00 0.00 0.00 1018.1
20260508003738 0 13 0.0 0.9 0.00 0.00 0.00 1018.0
20260508003236 0 147 0.9 2.6 0.00 0.00 0.00 1018.0
20260508002732 0 64 0.0 1.7 0.00 0.00 0.00 1018.0
20260508002230 0 125 0.0 1.7 0.00 0.00 0.00 1018.2
20260508001725 0 136 0.0 1.7 0.00 0.00 0.00 1018.7
20260508001221 0 129 0.0 1.7 0.00 0.00 0.00 1018.5
20260508000717 0 131 0.0 1.7 0.00 0.00 0.00 1018.7
20260508000215 0 146 0.9 1.7 0.00 0.00 0.00 1018.6
20260507235711 0 103 0.0 2.6 0.00 0.00 0.00 1018.8
20260507235209 0 98 0.0 3.5 0.00 0.00 0.00 1019.1
20260507234705 0 357 2.6 4.3 0.00 0.00 0.00 1019.3
20260507234202 0 224 0.0 3.5 0.00 0.00 0.00 1019.2
20260507233659 0 77 0.0 0.9 0.00 0.00 0.00 1018.9
20260507233157 0 25 0.0 0.9 0.00 0.00 0.00 1019.0
20260507232653 0 319 0.0 1.7 0.00 0.00 0.00 1018.8
20260507232151 0 156 0.0 1.7 0.00 0.00 0.00 1018.3
20260507231647 0 113 2.6 3.5 0.00 0.00 0.00 1018.2
20260507231144 0 97 0.9 2.6 0.00 0.00 0.00 1018.4
20260507230641 0 16 0.9 2.6 0.00 0.00 0.00 1018.6
20260507230138 0 284 0.0 1.7 0.00 0.00 0.00 1018.7
20260507225637 0 217 0.0 1.7 0.00 0.00 0.00 1018.6
20260507225134 0 314 2.6 2.6 0.00 0.00 0.00 1018.7
20260507224630 0 29 1.7 4.3 0.00 0.00 0.00 1019.0
20260507224127 0 38 0.0 1.7 0.00 0.00 0.00 1019.0
20260507223623 0 10 0.0 1.7 0.00 0.00 0.00 1019.3
20260507223120 0 358 0.9 1.7 0.00 0.00 0.00 1019.3
20260507222617 0 217 0.0 2.6 0.00 0.00 0.00 1019.0
20260507222113 0 127 0.9 1.7 0.00 0.00 0.00 1019.0
20260507221609 0 165 0.9 2.6 0.00 0.00 0.00 1019.3
20260507221106 0 160 3.5 5.2 0.00 0.00 0.00 1019.1
20260507220604 0 23 0.9 2.6 0.00 0.00 0.00 1019.6
20260507220101 0 128 0.0 3.5 0.00 0.00 0.00 1019.6
20260507215557 0 9 1.7 4.3 0.00 0.00 0.00 1019.8
20260507215055 0 107 1.7 2.6 0.00 0.00 0.00 1019.7
20260507214552 0 0 1.7 4.3 0.00 0.00 0.00 1019.9
20260507214048 0 354 1.7 4.3 0.00 0.00 0.00 1020.0
20260507213544 0 318 1.7 4.3 0.00 0.00 0.00 1019.9
20260507213042 0 328 0.0 2.6 0.00 0.00 0.00 1019.6
20260507212537 0 6 1.7 4.3 0.00 0.00 0.00 1019.7
20260507212034 0 335 1.7 4.3 0.00 0.00 0.00 1019.7
20260507211531 0 93 0.0 2.6 0.00 0.00 0.00 1019.6
20260507211027 0 327 0.9 1.7 0.00 0.00 0.00 1019.6
20260507210525 0 132 1.7 2.6 0.00 0.00 0.00 1019.1
20260507210021 0 142 2.6 2.6 0.00 0.00 0.00 1019.6
20260507205518 0 154 0.0 1.7 0.00 0.00 0.00 1019.8
20260507205014 0 40 0.9 4.3 0.00 0.00 0.00 1020.0
20260507204510 0 273 2.6 2.6 0.00 0.00 0.00 1020.3
20260507204008 0 170 0.0 1.7 0.00 0.00 0.00 1019.9
20260507203506 0 356 0.0 1.7 0.00 0.00 0.00 1020.1
20260507203003 0 354 1.7 4.3 0.00 0.00 0.00 1020.2
20260507202458 0 2 0.9 1.7 0.00 0.00 0.00 1020.2
20260507201955 0 319 0.9 3.5 0.00 0.00 0.00 1020.5
20260507201450 0 308 0.9 4.3 0.00 0.00 0.00 1020.5
20260507200947 0 21 0.9 2.6 0.00 0.00 0.00 1020.4
20260507200442 0 201 0.9 1.7 0.00 0.00 0.00 1020.0
20260507195938 0 130 0.9 4.3 0.00 0.00 0.00 1020.3
20260507195436 0 128 0.0 2.6 0.00 0.00 0.00 1020.3
20260507194934 0 346 0.0 4.3 0.00 0.00 0.00 1020.5
20260507194430 0 349 2.6 3.5 0.00 0.00 0.00 1020.9
20260507193926 0 233 0.0 3.5 0.00 0.00 0.00 1021.1
20260507193423 0 81 0.9 2.6 0.00 0.00 0.00 1021.2
20260507192919 0 114 0.9 1.7 0.00 0.00 0.00 1021.1
20260507192416 0 319 1.7 2.6 0.00 0.00 0.00 1020.9
20260507191913 0 11 0.9 3.5 0.00 0.00 0.00 1020.5
20260507191409 0 196 0.0 2.6 0.00 0.00 0.00 1020.9
20260507190906 0 39 0.0 1.7 0.00 0.00 0.00 1021.2
20260507190404 0 318 0.0 3.5 0.00 0.00 0.00 1020.6
20260507185903 0 134 0.0 1.7 0.00 0.00 0.00 1020.6
20260507185359 0 20 0.0 4.3 0.00 0.00 0.00 1020.7
20260507184856 0 144 0.9 4.3 0.00 0.00 0.00 1020.9
20260507184354 0 129 1.7 3.5 0.00 0.00 0.00 1020.9
20260507183850 0 162 0.9 4.3 0.00 0.00 0.00 1020.6
20260507183348 0 39 0.9 4.3 0.00 0.00 0.00 1020.8
20260507182845 0 29 1.7 3.5 0.00 0.00 0.00 1020.9
20260507182341 0 89 2.6 4.3 0.00 0.00 0.00 1020.7
20260507181837 0 54 2.6 7.8 0.00 0.00 0.00 1020.9
20260507181333 0 166 0.9 5.2 0.00 0.00 0.00 1021.0
20260507180830 0 63 1.7 4.3 0.00 0.00 0.00 1021.2
20260507180327 0 93 0.0 4.3 0.00 0.00 0.00 1021.5
20260507175822 0 88 1.7 5.2 0.00 0.00 0.00 1021.9
20260507175320 0 52 0.9 3.5 0.00 0.00 0.00 1021.8
20260507174817 0 175 0.0 3.5 0.00 0.00 0.00 1021.2
20260507174315 0 39 0.9 4.3 0.00 0.00 0.00 1021.0
20260507173812 0 81 0.0 7.0 0.00 0.00 0.00 1021.0
20260507173309 0 333 0.9 4.3 0.00 0.00 0.00 1021.5
20260507172805 0 41 0.9 6.1 0.00 0.00 0.00 1021.3
20260507172307 0 93 0.0 3.5 0.00 0.00 0.00 1021.6
20260507171758 0 323 2.6 5.2 0.00 0.00 0.00 1022.1
20260507171255 0 165 0.0 2.6 0.00 0.00 0.00 1021.1
20260507170752 0 209 1.7 4.3 0.00 0.00 0.00 1021.1
20260507170248 0 146 0.0 6.1 0.00 0.00 0.00 1020.7
20260507165744 0 76 0.9 2.6 0.00 0.00 0.00 1021.0
20260507165241 0 151 1.7 3.5 0.00 0.00 0.00 1020.9
20260507164737 0 120 0.0 3.5 0.00 0.00 0.00 1021.8
20260507164234 0 159 0.9 2.6 0.00 0.00 0.00 1021.7
20260507163731 0 66 1.7 8.7 0.00 0.00 0.00 1022.7
20260507163229 0 7 2.6 4.3 0.00 0.00 0.00 1022.2
20260507162725 0 103 0.0 3.5 0.00 0.00 0.00 1023.0
20260507162221 0 123 0.0 1.7 0.00 0.00 0.00 1023.3
20260507161718 0 88 0.9 3.5 0.00 0.00 0.00 1023.4
20260507161214 0 11 0.0 2.6 0.00 0.00 0.00 1023.0
20260507160710 0 55 2.6 5.2 0.00 0.00 0.00 1022.4
20260507160207 0 341 0.9 3.5 0.00 0.00 0.00 1022.1
20260507155703 0 15 1.7 4.3 0.00 0.00 0.00 1022.8
20260507155159 0 307 0.0 5.2 0.00 0.00 0.00 1022.6
20260507154655 0 290 2.6 5.2 0.00 0.00 0.00 1022.6
20260507154153 0 340 2.6 7.8 0.00 0.00 0.00 1022.4
20260507153650 0 0 0.9 4.3 0.00 0.00 0.00 1022.4
20260507153146 0 197 2.6 4.3 0.00 0.00 0.00 1022.2
20260507152643 0 25 0.9 2.6 0.00 0.00 0.00 1023.1
20260507152139 0 221 0.0 2.6 0.00 0.00 0.00 1022.7
20260507151635 0 3 0.0 4.3 0.00 0.00 0.00 1023.2
20260507151132 0 206 1.7 6.1 0.00 0.00 0.00 1021.7
20260507150629 0 80 1.7 7.0 0.00 0.00 0.00 1022.4
20260507150125 0 39 0.9 4.3 0.00 0.00 0.00 1023.1
20260507145620 0 60 1.7 4.3 0.00 0.00 0.00 1022.8
20260507145119 0 68 0.9 2.6 0.00 0.00 0.00 1022.1
20260507144614 0 202 0.9 2.6 0.00 0.00 0.00 1022.2
20260507144113 0 49 0.0 5.2 0.00 0.00 0.00 1021.8
20260507143609 0 20 0.0 7.0 0.00 0.00 0.00 1021.8
20260507143106 0 240 0.0 5.2 0.00 0.00 0.00 1022.3
20260507142601 0 309 0.0 4.3 0.00 0.00 0.00 1022.3
20260507142059 0 118 0.0 6.1 0.00 0.00 0.00 1021.8
20260507141554 0 322 2.6 7.0 0.00 0.00 0.00 1021.8
20260507141051 0 16 1.7 5.2 0.00 0.00 0.00 1022.3
20260507140548 0 21 1.7 4.3 0.00 0.00 0.00 1022.1
20260507140046 0 99 0.0 3.5 0.00 0.00 0.00 1022.1
20260507135542 0 0 0.0 4.3 0.00 0.00 0.00 1022.1
20260507135040 0 315 1.7 5.2 0.00 0.00 0.00 1021.9
20260507134536 0 2 0.0 5.2 0.00 0.00 0.00 1021.5
20260507134032 0 19 0.0 8.7 0.00 0.00 0.00 1021.4
20260507133528 0 35 1.7 6.1 0.00 0.00 0.00 1021.6
20260507133027 0 295 0.9 9.6 0.00 0.00 0.00 1021.6
20260507132523 0 24 1.7 4.3 0.00 0.00 0.00 1021.8
20260507132019 0 156 0.9 7.0 0.00 0.00 0.00 1021.7
20260507131516 0 354 3.5 6.1 0.00 0.00 0.00 1021.9
20260507131013 0 80 1.7 5.2 0.00 0.00 0.00 1021.7
20260507130510 0 324 1.7 7.8 0.00 0.00 0.00 1021.8
20260507130009 0 38 1.7 6.1 0.00 0.00 0.00 1021.5
20260507125507 0 348 0.9 6.1 0.00 0.00 0.00 1021.6
20260507125004 0 43 1.7 8.7 0.00 0.00 0.00 1021.7
20260507124500 0 295 2.6 7.0 0.00 0.00 0.00 1021.7
20260507123958 0 9 0.9 6.1 0.00 0.00 0.00 1021.9
20260507123455 0 231 0.9 7.8 0.00 0.00 0.00 1021.8
20260507122951 0 41 1.7 6.1 0.00 0.00 0.00 1021.6
20260507122447 0 316 2.6 5.2 0.00 0.00 0.00 1021.4
20260507121943 0 348 1.7 6.1 0.00 0.00 0.00 1021.3
20260507121438 0 16 1.7 5.2 0.00 0.00 0.00 1021.1
20260507120935 0 345 3.5 7.8 0.00 0.00 0.00 1021.0
20260507120224 0 13 2.6 7.8 0.00 0.00 0.00 1020.6
20260507115720 0 13 2.6 7.8 0.00 0.00 0.00 1020.6